N8PFF Weather Reports


Display with metric or nautical units.
time (UTC)temp
F
wind
direction
speed
MPH
gust
MPH
rain 1hr
in
rain 24hr
in
rain mn
in
humidity
%
barometer
mb
20260505091603 62 155 2.0 3.0 0.00 0.00 0.00 75 1007.1
20260505090058 62 165 0.0 6.0 0.00 0.00 0.00 75 1006.9
20260505084512 62 164 1.0 5.0 0.00 0.00 0.00 74 1006.7
20260505083025 62 148 1.0 7.0 0.00 0.00 0.00 74 1006.7
20260505081528 63 169 2.0 6.0 0.00 0.00 0.00 74 1006.6
20260505080046 63 146 1.0 6.0 0.00 0.00 0.00 74 1006.6
20260505074552 63 158 1.0 7.0 0.00 0.00 0.00 73 1006.4
20260505073008 63 135 3.0 6.0 0.00 0.00 0.00 73 1006.2
20260505071528 63 160 2.0 7.0 0.00 0.00 0.00 73 1006.1
20260505070029 63 186 2.0 7.0 0.00 0.00 0.00 73 1006.0
20260505064538 63 136 1.0 6.0 0.00 0.00 0.00 73 1006.0
20260505063037 63 272 1.0 4.0 0.00 0.00 0.00 73 1006.1
20260505061502 63 273 1.0 5.0 0.00 0.00 0.00 72 1006.3
20260505060007 64 162 2.0 6.0 0.00 0.00 0.00 71 1006.5
20260505054511 64 170 2.0 5.0 0.00 0.00 0.00 71 1006.7
20260505053024 65 157 1.0 8.0 0.00 0.00 0.00 71 1006.8
20260505051529 65 160 2.0 8.0 0.00 0.00 0.00 71 1006.8
20260505041501 64 141 1.0 4.0 0.00 0.00 0.00 74 1006.8
20260505040014 63 178 0.0 2.0 0.00 0.00 0.00 75 1006.9
20260505034520 63 133 0.0 5.0 0.00 0.00 0.00 75 1006.9
20260505033031 63 133 0.0 2.0 0.00 0.00 0.00 74 1006.9
20260505031553 63 142 0.0 3.0 0.00 0.00 0.00 74 1006.8
20260505030052 63 155 0.0 3.0 0.00 0.00 0.00 73 1006.7
20260505024512 63 150 0.0 3.0 0.00 0.00 0.00 73 1006.8
20260505023022 63 149 1.0 4.0 0.00 0.00 0.00 72 1006.9
20260505021528 63 117 0.0 0.0 0.00 0.00 0.00 72 1006.9
20260505020032 64 130 0.0 2.0 0.00 0.00 0.00 71 1006.8
20260505014551 64 92 0.0 0.0 0.00 0.00 0.00 70 1006.7
20260505013006 64 86 0.0 0.0 0.00 0.00 0.00 70 1006.7
20260505011525 64 143 0.0 2.0 0.00 0.00 0.00 69 1006.6
20260505010053 65 155 0.0 2.0 0.00 0.00 0.00 68 1006.5
20260505004550 67 152 0.0 3.0 0.00 0.00 0.00 65 1006.5
20260505003103 68 130 0.0 5.0 0.00 0.00 0.00 64 1006.4
20260505001509 68 139 2.0 6.0 0.00 0.00 0.00 62 1006.4
20260505000023 69 143 2.0 6.0 0.00 0.00 0.00 61 1006.4
20260504234534 70 147 1.0 6.0 0.00 0.00 0.00 59 1006.7
20260504233043 71 150 3.0 8.0 0.00 0.00 0.00 58 1006.9
20260504231545 71 155 2.0 6.0 0.00 0.00 0.00 58 1006.9
20260504224601 72 277 4.0 14.0 0.00 0.00 0.00 56 1007.0
20260504223018 71 205 4.0 13.0 0.00 0.00 0.00 58 1007.3
20260504221524 70 139 4.0 12.0 0.00 0.00 0.00 58 1007.3
20260504220040 70 238 4.0 10.0 0.00 0.00 0.00 58 1007.0
20260504214616 71 221 2.0 11.0 0.00 0.00 0.00 59 1006.7
20260504213006 71 222 4.0 15.0 0.00 0.00 0.00 57 1007.2
20260504211524 71 222 6.0 18.0 0.00 0.00 0.00 57 1007.6
20260504210025 72 269 9.0 18.0 0.00 0.00 0.00 55 1007.8
20260504204535 72 257 8.0 19.0 0.00 0.00 0.00 54 1007.7
20260504203006 74 144 5.0 17.0 0.00 0.00 0.00 54 1007.5
20260504201523 73 231 4.0 15.0 0.00 0.00 0.00 55 1007.6
20260504200033 73 163 7.0 19.0 0.00 0.00 0.00 52 1007.5
20260504194548 73 162 3.0 14.0 0.00 0.00 0.00 51 1007.5
20260504193041 75 227 7.0 11.0 0.00 0.00 0.00 51 1007.5
20260504191542 73 151 4.0 9.0 0.00 0.00 0.00 53 1007.6
20260504190004 72 252 4.0 14.0 0.00 0.00 0.00 52 1007.8
20260504184521 73 278 4.0 11.0 0.00 0.00 0.00 53 1007.9
20260504183028 73 150 5.0 23.0 0.00 0.00 0.00 53 1008.1
20260504181532 73 258 5.0 12.0 0.00 0.00 0.00 54 1008.2
20260504180013 73 259 3.0 8.0 0.00 0.00 0.00 56 1008.3
20260504174531 72 260 3.0 10.0 0.00 0.00 0.00 58 1008.5
20260504173037 71 188 4.0 11.0 0.00 0.00 0.00 57 1008.6
20260504171550 70 217 2.0 11.0 0.00 0.00 0.00 57 1008.9